Regional Weather Roundup
Issued by NWS Upton, NY

Current Version | Previous Version | Graphics & Text | Print | Product List | Glossary Off
Versions: 1 2 3 4 5 6 7 8 9 10 11 12 13 14 15 16 17 18 19 20 21 22 23 24 25 26 27

000
ASUS41 KOKX 270804
RWROKX

REGIONAL WEATHER ROUNDUP
NATIONAL WEATHER SERVICE NEW YORK NY
400 AM EDT WED JUL 27 2016

NOTE: "FAIR" INDICATES FEW OR NO CLOUDS BELOW 12,000 FEET WITH NO
SIGNIFICANT WEATHER AND/OR OBSTRUCTIONS TO VISIBILITY.

NYZ071-072-176-178-NJZ106-104-270900-
NEW YORK CITY METRO AREA

CITY           SKY/WX    TMP DP  RH WIND       PRES   REMARKS
Central Park   PTCLDY    76  61  59 CALM      29.96S
LaGuardia APRT MOCLDY    77  66  68 NE3       29.93R
Kennedy INTL   PTCLDY    76  61  59 N7        29.94R
Newark/Liberty MOCLDY    76  62  62 N6        29.93S
Bronx Bot Gard   N/A     73  63  68 NE1       29.96R
Wall St Helipt MOSUNNY   79  64  61 CALM      29.94S
Teterboro      PTCLDY    73  61  65 NW3       29.93R
$$

NYZ177-179-078>081-270900-
LONG ISLAND NEW YORK

CITY           SKY/WX    TMP DP  RH WIND       PRES   REMARKS
Farmingdale    CLEAR     74  63  68 MISG      29.93S
MacArthur/ISP  CLEAR     70  64  81 N7        29.92R
Shirley        CLEAR     69  63  81 CALM      29.93R
Riverhead      NOT AVBL
Westhampton    CLEAR     64  61  90 NW3       29.93F
Southhampton     N/A     72  64  78 NW3       29.88S
Bridgehampton    N/A     70  64  83 CALM      29.90F
East Hampton   FAIR      71  64  76 CALM      29.91S
Montauk          N/A     69  64  84 CALM      29.92F
$$

NYZ052-065-067-270900-
HUDSON VALLEY

CITY           SKY/WX    TMP DP  RH WIND       PRES   REMARKS
White Plains   CLEAR     69  62  78 NW7       29.94S
Newburgh       PTCLDY    64  63  94 CALM      29.97S
Montgomery     PTCLDY    62  61  96 CALM      29.96S
Poughkeepsie   CLEAR     64  61  90 CALM      29.94S
Albany         MOCLDY    64  59  83 CALM      29.95S
$$

NJZ001-105-106-008-010-013-015-019>022-104-270900-
NEW JERSEY

CITY           SKY/WX    TMP DP  RH WIND       PRES   REMARKS
Newark/Liberty MOCLDY    76  62  62 N6        29.93S
Teterboro      PTCLDY    73  61  65 NW3       29.93R
Caldwell       PTCLDY    70  64  81 CALM      29.95S
Morristown     CLEAR     64  61  88 CALM      29.95S
Somerville     PTCLDY    67  65  93 CALM      29.93S
Linden         FAIR      75  62  64 CALM      29.95S
Sussex         PTCLDY    62  62 100 CALM      29.97S FOG
Abdover          N/A     64  62  93 CALM      29.97F
Trenton        PTCLDY    74  63  68 N6        29.94R
Millville      CLOUDY    78  75  90 N3        29.92S
Atlantic City  CLOUDY    77  71  82 CALM      29.92F
Wrightstown    MOCLDY    73  67  81 E2        29.91S
Toms River     PTCLDY    69  66  90 CALM      29.94R
Belmar         CLEAR     73  66  78 N3        29.95S
$$

PAZ047>061-062-071-270900-
EASTERN PENNSYLVANIA

CITY           SKY/WX    TMP DP  RH WIND       PRES   REMARKS
Philadelphia   CLOUDY    79  66  64 NE5       29.93S
Allentown      PTCLDY    70  63  78 CALM      29.96S
Scranton       CLEAR     65  60  84 VRB3      29.99S
$$

CTZ002-004>006-009-010-012-RIZ004-006-007-MAZ004-011-015-270900-
SOUTHERN NEW ENGLAND
 IN CT

CITY           SKY/WX    TMP DP  RH WIND       PRES   REMARKS
Bradley INTL   PTCLDY    68  61  78 N3        29.91F
Hartford       CLEAR     72  66  81 S3        29.92S
Danbury        CLEAR     64  60  87 SW6       29.96S
Wtrbury/Oxford   N/A     66  57  72 N7        29.95S
Bridgeport     CLEAR     74  61  63 N5        29.92S
Meriden        CLEAR     68  62  81 CALM      29.92F
New Haven      CLEAR     72  62  71 N5        29.92S
Chester        FAIR      72  63  73 CALM      29.93F
Groton         CLEAR     71  62  73 N5        29.90S
Wilimantic     NOT AVBL

 IN RI

CITY           SKY/WX    TMP DP  RH WIND       PRES   REMARKS
Providence     PTCLDY    73  60  63 NW3       29.91S
Block Island   CLEAR     71  63  75 NW5       29.91F
Westerly       CLEAR     69  61  75 CALM      29.91F
 IN MA

CITY           SKY/WX    TMP DP  RH WIND       PRES   REMARKS
Boston         CLEAR     76  60  57 NW8       29.89S
Worchester     CLEAR     67  58  72 W8        29.95S
Westfield      PTCLDY    70  60  70 NW6       29.93S
Provincetown   CLEAR     70  66  87 NW5       29.89S
Nantucket      PTCLDY    73  66  78 N8        29.88S
$$

ANZ330-335-338-340-345-350-353-355-270900-
COASTAL MARINE OBSERVATIONS


STATION/POSITION TIME  SKY/WX   TEMP    WIND        PRES    VSBY  WAVE
                                AIR SEA DIR/SP/G                  HT/PER
                 (UTC)          (F)     (DEG/KT/KT) (MB)    (MI)  (FT/S)
NY HARB ENTRANCE 0650            76 75  350/  6/  8 1012.9          2/ 6
20S FIRE ISLAND  0650            77 76  360/  6/  8 1012.6          3/ 7
GREAT SOUTH BAY  0730            76 81  340/  6/  8   N/A
23 SSW MONTAUK P 0650            72 70  310/  6/  8 1013.0          3/ 7
15 E BARNEGAT LI 0722               77                N/A           2/ 6
HUDSON CANYON    0650            78 78              1012.5          3/ 7
KINGS POINT      0700            74 73              1013.3
EXECUTION ROCKS  0700            75     340/  2/  2   N/A
CENTRAL LI SOUND 0730            75 74   10/  8/ 10   N/A           0
EASTERN LI SOUND 0700            73 69  330/  2/  4   N/A
ROBBINS REEF     0700            79     330/  5/  7 1012.9
$$


>>>>>>>>>>>>>>>>>>>>>>>>>>>> KEY <<<<<<<<<<<<<<<<<<<<<<<<<<<
>                                                          <
>     SKY/WX - Sky Condition/Present Weather               <
>     TMP    - Temperature in Fahrenheit                   <
>     DP     - Dew Point in Fahrenheit                     <
>     RH     - Relative Humidity in Percent                <
>     WIND   - Direction (from) and Speed in MPH           <
>     PRES   - Mean Sea Level Pressure (inches of Hg)      <
>     WCI    - Wind Chill Index                            <
>     VSB    - VISIBILITY IN MILES                         <
>     HX     - HEAT INDEX                                  <
>     TC     - TEMPERATURE IN CELSIUS                      <
>     VRB    - VARIABLE WIND DIRECTION                     <
>                                                          <
>>>>>>>>>>>>>>>>>>>>>>>>>>>> KEY <<<<<<<<<<<<<<<<<<<<<<<<<<<




USA.gov is the U.S. government's official web portal to all federal, state and local government web resources and services.